Theta_e
328 330 334 335 336 336 335 335 334 333 334 335 336 335 336 335 334 331 327 327 325 323 323 323 322 321 320 321 323 322 316 314 310 315 318 321 323 323 327 326 326 326 324
331 333 335 338 336 335 334 335 335 335 337 337 337 337 336 334 331 327 325 327 324 322 322 322 322 324 323 322 323 319 317 316 315 313 316 321 322 325 326 324 325 327 325
336 336 337 339 337 336 337 337 337 337 336 338 337 335 334 332 329 327 327 326 324 322 322 323 322 322 318 321 320 319 318 319 318 317 320 322 322 324 323 323 322 322 323
338 337 336 338 337 337 337 337 336 337 335 335 332 332 329 329 329 328 326 324 323 323 323 323 322 322 321 320 320 319 318 319 320 320 320 319 319 320 322 320 318 319 317
336 335 333 334 334 334 333 334 334 334 332 329 326 326 328 331 330 329 326 323 321 320 321 322 323 324 324 320 322 319 320 320 321 319 318 318 317 317 317 317 316 317 317
334 333 334 333 334 333 332 329 327 326 325 326 323 323 324 324 307 312 321 321 321 320 321 322 325 321 319 315 317 317 320 320 319 318 317 317 317 315 317 317 316 316 312
333 334 334 333 331 330 328 326 323 322 322 322 323 322 320 315 303 306 313 321 321 321 320 319 323 325 320 320 311 313 311 311 317 320 317 318 316 317 318 317 317 315 313
333 333 332 331 329 325 326 324 322 325 326 324 322 320 316 312 303 306 311 321 321 321 321 322 322 322 319 321 321 320 317 318 319 319 317 316 315 318 319 318 317 316 317
330 331 331 328 325 323 322 324 325 327 327 324 320 316 314 314 303 306 314 320 319 318 318 321 322 319 303 306 321 318 316 316 308 308 308 305 304 307 313 317 316 315 312
326 325 324 325 324 323 325 325 326 325 323 322 319 316 311 316 302 304 314 318 318 318 318 316 306 313 301 304 320 318 316 315 314 314 312 307 308 308 308 320 317 315 313
325 324 324 325 326 327 326 326 325 323 323 320 318 316 315 317 311 303 308 321 320 318 317 314 310 300 299 302 309 320 316 315 312 316 316 316 316 316 317 318 319 318 315
325 325 324 324 326 327 326 325 324 322 320 318 319 317 317 317 305 303 305 309 312 317 317 314 308 298 298 301 309 299 300 310 318 317 316 315 315 317 317 316 316 317 318
323 323 324 324 324 326 324 321 322 322 320 319 318 316 316 315 310 300 301 303 307 317 316 305 296 296 297 299 297 299 305 318 317 316 315 315 317 317 317 317 316 317 318
322 323 323 322 321 322 323 323 323 321 320 319 318 316 315 314 310 311 310 309 303 306 303 307 305 304 304 305 311 314 319 318 317 316 315 316 316 317 316 317 315 315 315
321 323 322 322 319 314 308 311 320 318 320 320 318 318 316 312 310 309 310 314 314 310 312 316 316 316 315 316 317 317 317 317 316 316 316 316 316 316 316 318 316 314 313
322 322 320 317 317 315 312 307 295 297 300 303 306 314 316 304 299 298 297 298 298 300 315 315 314 315 315 315 315 315 316 313 316 317 316 316 315 315 315 316 318 314 312
322 322 320 318 317 315 315 315 311 303 297 296 299 299 301 298 296 296 297 296 297 306 316 315 314 315 316 316 316 316 315 316 317 317 317 316 316 315 312 316 316 316 313
321 314 321 320 318 316 316 316 317 318 315 310 297 297 294 295 295 295 296 303 315 312 316 315 315 316 317 314 313 316 317 316 313 315 316 316 316 316 316 316 317 314 314
322 322 323 322 320 317 318 318 316 316 313 309 307 300 294 292 293 294 296 317 316 315 314 314 315 316 315 315 314 314 314 315 314 314 317 318 318 317 316 317 317 305 306
322 310 317 322 320 319 319 317 315 315 315 316 314 310 305 307 311 311 313 318 318 317 317 317 317 318 315 315 316 316 316 315 317 318 318 319 319 318 316 315 314 313 311
320 319 311 323 321 321 320 317 316 316 316 316 315 311 296 313 311 310 314 319 320 320 319 318 318 318 319 319 320 320 319 318 319 320 320 320 319 316 316 316 317 316 316
325 321 322 322 323 323 321 319 318 317 316 315 315 304 292 316 316 317 317 313 311 312 318 315 308 307 308 310 310 321 322 322 320 321 322 322 319 318 318 317 317 316 317
321 321 321 321 322 314 321 321 320 318 317 316 316 312 313 316 316 310 306 304 303 301 300 301 300 299 300 299 300 301 305 307 307 309 314 319 322 320 321 321 321 320 319
322 322 319 318 321 321 322 321 319 310 317 317 318 316 310 308 304 301 300 299 298 297 295 295 296 295 295 295 296 296 297 297 301 311 316 316 315 313 315 316 313 313 312
318 316 315 315 315 315 319 320 319 319 318 315 313 309 306 303 299 298 296 295 293 294 293 293 293 293 294 294 294 293 289 289 296 296 307 307 308 307 307 308 306 305 305
307 308 306 306 305 305 307 307 306 306 304 302 301 301 301 299 298 297 295 293 292 292 291 292 292 291 290 290 289 288 288 289 293 289 299 299 298 299 299 300 300 299 299
Wind_Speed
12 10 11 10 10 10 10 10 10 9 8 8 8 7 7 8 7 6 5 6 6 6 4 6 6 5 4 3 3 2 4 3 3 0 1 2 3 5 3 4 4 4 3
11 11 10 10 11 10 9 10 10 10 9 9 9 8 9 8 8 8 7 6 7 7 7 6 6 4 5 4 3 4 4 3 3 4 2 2 4 5 4 7 5 4 3
11 10 9 10 11 10 11 11 10 11 9 9 9 10 9 9 7 7 7 7 7 7 7 7 6 6 4 2 3 4 3 2 2 4 4 2 3 4 6 6 6 5 4
12 11 10 11 11 11 11 11 11 11 12 10 8 9 7 7 6 6 6 6 5 5 5 5 6 7 6 5 4 5 4 5 5 6 5 4 3 4 5 5 5 4 4
13 12 11 12 12 11 12 11 11 12 9 9 7 7 7 6 4 6 6 6 5 5 4 5 5 6 7 7 4 5 7 6 7 7 4 3 3 3 7 2 4 4 4
14 14 13 12 14 14 12 11 10 10 9 11 8 9 7 5 7 9 7 5 5 6 5 4 4 5 5 6 10 12 12 12 10 7 5 6 4 3 5 6 6 4 3
15 15 14 14 13 13 12 12 10 9 8 9 8 8 8 6 6 9 10 5 5 4 5 5 4 3 4 4 6 11 7 6 11 10 12 9 8 6 8 8 4 3 3
17 16 15 15 13 11 11 10 9 10 11 9 7 8 8 5 6 9 10 6 5 5 4 5 5 4 3 6 10 9 7 6 6 4 6 7 6 7 8 7 7 6 5
16 15 14 13 11 11 11 11 10 10 9 7 7 8 7 5 5 9 8 5 5 5 4 4 5 5 4 11 11 11 8 5 6 9 11 12 14 13 10 9 7 9 3
14 14 12 11 11 12 11 12 7 9 9 7 8 6 8 6 4 9 8 4 5 3 3 5 5 7 8 9 11 10 10 6 7 5 5 7 8 9 11 8 8 8 5
13 13 12 11 12 12 11 10 9 9 10 9 8 6 6 5 5 9 10 5 5 4 3 3 3 6 10 8 10 8 8 8 8 7 6 6 6 6 3 4 4 8 6
13 13 12 10 10 10 12 8 11 11 11 9 9 7 4 4 5 5 8 7 7 5 4 3 3 7 10 11 6 15 14 10 6 5 5 5 6 5 3 4 5 5 4
12 11 10 10 9 10 10 9 9 10 9 8 8 7 4 3 3 4 8 9 8 4 4 6 9 11 12 10 12 14 11 6 6 6 5 3 3 4 6 5 4 5 4
12 12 11 10 7 6 7 8 8 8 8 8 7 7 6 4 3 3 3 5 8 7 9 5 8 9 9 9 8 5 4 5 6 6 4 4 4 4 5 3 3 3 1
11 10 10 8 9 7 6 4 5 4 8 9 6 7 8 5 4 6 7 5 5 6 8 4 5 6 6 5 4 5 5 5 5 5 5 5 5 4 3 3 3 2 3
11 9 8 7 6 7 7 5 14 8 5 7 11 8 3 8 11 11 11 11 12 11 5 6 5 4 5 4 4 4 4 5 4 5 5 5 5 4 4 3 2 3 3
12 10 7 7 6 7 5 7 7 8 18 14 10 13 10 10 13 13 13 11 10 8 6 5 6 5 4 4 4 4 3 3 5 5 5 5 5 4 4 4 4 3 3
9 13 9 7 7 5 6 7 7 8 8 4 11 8 11 13 14 14 12 9 5 4 4 5 4 3 3 4 4 3 3 4 3 4 4 4 5 5 4 4 4 4 4
10 7 8 7 6 7 6 7 8 9 8 6 5 9 9 12 11 8 3 4 5 4 3 3 3 3 3 4 4 3 4 4 4 5 5 4 5 5 5 4 3 5 4
7 13 10 7 8 7 5 8 8 8 8 8 7 6 5 6 6 5 1 1 3 3 3 4 3 3 3 3 4 4 4 4 4 4 4 5 4 4 4 5 5 5 5
6 6 12 9 8 8 6 8 8 10 9 7 6 6 7 7 5 3 2 2 3 3 4 3 3 2 1 2 3 4 4 3 3 4 4 4 5 4 5 5 6 6 6
9 8 8 8 9 8 7 7 7 9 10 8 6 3 5 5 4 3 4 5 6 6 4 6 5 5 4 3 4 3 4 3 2 1 3 4 5 5 4 4 4 4 5
7 6 7 8 8 10 8 9 9 9 9 9 8 5 3 4 6 7 7 6 7 8 7 8 7 6 6 5 6 6 5 3 2 2 2 3 4 4 4 4 2 3 2
9 9 10 7 9 8 8 9 8 11 10 9 7 7 8 8 9 10 8 8 8 9 9 8 9 10 7 7 6 6 4 2 2 3 6 6 6 6 5 7 6 7 5
10 10 9 11 10 9 9 10 10 11 11 10 10 10 10 10 10 10 9 8 9 10 11 9 8 11 13 13 12 12 8 10 9 6 7 9 10 10 7 7 8 8 8
12 10 9 11 11 10 10 10 11 12 11 10 10 10 10 11 10 10 9 10 10 10 11 9 12 17 14 13 15 14 14 13 11 10 8 9 8 7 7 9 11 7 8
Wind_Direction
177 173 162 160 151 154 155 152 154 147 150 149 147 144 146 144 143 143 141 146 171 168 162 170 179 167 175 185 180 158 159 154 140 132 101 100 87 129 90 89 126 100 122
155 153 148 142 145 146 147 147 145 147 144 144 153 150 147 157 159 149 162 171 168 177 183 177 185 168 174 191 183 176 171 186 141 128 86 92 97 109 114 121 106 95 112
138 133 135 144 148 150 147 144 143 138 140 152 150 148 152 162 159 168 157 165 177 188 183 182 175 165 186 186 177 173 168 158 144 121 125 115 90 118 106 79 84 82 67
136 132 133 145 151 148 139 144 142 146 144 146 154 154 151 160 156 147 155 177 184 194 186 177 166 181 191 189 192 175 141 126 117 119 107 97 89 76 94 116 93 80 74
127 128 133 136 136 136 133 137 136 135 139 130 111 110 114 120 137 143 150 149 154 148 159 168 174 188 210 201 174 158 137 134 138 143 123 117 120 126 136 108 98 91 60
130 126 131 137 133 129 122 125 116 114 115 120 115 113 112 98 107 114 121 130 133 138 152 165 168 188 215 236 191 158 158 149 153 150 160 151 133 108 129 135 139 132 103
126 130 136 128 127 130 133 124 118 114 115 116 117 117 102 104 116 124 127 129 133 147 155 166 176 189 188 164 146 137 109 132 159 155 158 166 159 153 146 142 135 99 89
129 133 135 136 134 128 126 116 114 124 126 124 121 110 111 110 125 130 115 108 111 125 153 174 160 152 140 136 122 119 112 115 130 116 145 142 124 137 148 142 121 99 92
127 132 140 137 133 121 117 125 121 122 121 121 120 119 117 121 115 132 112 113 107 91 89 95 124 116 132 125 115 115 101 79 50 109 125 128 130 137 135 128 134 135 124
129 140 137 124 119 127 131 129 130 126 121 118 104 107 122 123 113 142 124 120 115 107 76 86 72 114 137 127 123 128 130 135 117 107 94 92 118 139 146 155 150 147 124
135 131 128 129 134 135 135 129 124 114 110 106 111 108 108 116 99 142 142 139 140 133 122 105 83 97 142 137 132 139 138 126 112 117 122 123 116 143 122 129 149 157 149
133 137 134 136 132 138 134 125 123 121 118 120 117 107 103 103 91 127 152 136 140 137 137 118 120 128 121 121 106 120 116 115 121 122 128 133 140 145 121 122 118 116 108
130 133 135 124 127 138 128 125 124 124 128 135 135 135 126 107 100 89 144 139 129 107 115 106 111 108 101 89 118 126 128 128 131 133 134 123 124 120 118 104 106 132 109
137 133 130 123 112 110 128 136 137 137 136 147 150 148 145 129 132 120 124 101 95 88 107 111 100 87 89 111 117 100 116 134 143 133 118 105 114 127 131 126 122 130 119
127 130 122 122 114 101 70 55 126 111 151 157 161 151 149 152 184 145 145 135 132 129 125 115 106 113 120 117 113 114 115 123 134 133 131 128 134 133 130 135 118 140 181
133 131 130 125 125 130 127 100 46 45 113 99 128 133 113 132 136 131 121 123 130 144 117 120 115 119 123 121 126 120 118 124 135 140 143 147 152 156 154 150 138 176 197
141 132 121 121 125 134 130 129 117 58 67 52 113 119 121 139 127 128 123 118 129 120 123 131 132 144 148 143 142 144 136 146 140 151 154 157 154 162 161 181 192 177 205
121 126 129 134 133 125 113 117 124 127 122 89 37 67 104 122 125 124 119 109 104 80 122 131 141 151 145 139 157 136 136 138 142 142 151 158 170 180 186 200 196 197 212
136 134 129 122 122 113 104 99 100 107 107 111 108 66 64 79 95 100 73 137 144 143 130 132 150 140 143 152 160 162 160 159 163 165 173 184 183 184 197 201 208 214 207
144 134 127 124 127 122 114 113 111 114 121 125 126 128 132 124 149 169 194 117 142 144 148 161 160 147 158 173 168 172 174 174 175 176 182 186 185 181 201 210 212 215 217
134 135 128 131 130 135 132 130 129 136 136 129 130 145 159 148 147 108 67 7 143 145 148 135 125 130 163 255 223 182 178 185 199 195 198 192 183 202 212 215 227 229 239
135 139 136 124 123 129 129 123 123 132 133 128 116 87 95 101 106 103 65 46 44 44 57 83 73 60 45 30 337 199 162 174 183 202 210 211 207 227 233 239 244 244 246
101 104 105 111 116 121 121 126 125 119 119 129 124 120 101 96 87 82 73 58 55 55 50 62 65 58 48 34 34 21 46 57 25 334 299 256 228 229 223 238 251 290 322
95 96 94 89 113 112 121 115 111 114 119 119 119 100 91 85 83 79 72 68 70 66 62 60 60 58 43 37 38 43 43 37 327 349 23 52 59 34 34 74 66 59 28
85 89 87 97 93 99 109 114 116 113 106 98 100 96 93 91 88 81 74 75 74 73 66 62 64 58 55 54 49 41 31 39 46 46 69 67 65 50 35 54 55 51 47
78 77 89 91 88 85 91 94 95 94 92 88 86 85 88 87 84 86 81 78 78 74 69 63 62 59 53 45 42 32 27 24 42 34 59 67 76 81 81 76 70 71 56